TimeCST,TemperatureF,Dew PointF,Humidity,Sea Level PressureIn,VisibilityMPH,Wind Direction,Wind SpeedMPH,Gust SpeedMPH,PrecipitationIn,Events,Conditions,WindDirDegrees,DateUTC
12:53 AM,39.0,28.0,65,29.95,10.0,Calm,Calm,-,N/A,,Clear,0,2012-12-23 06:53:00
1:53 AM,37.9,30.0,73,29.94,10.0,Calm,Calm,-,N/A,,Clear,0,2012-12-23 07:53:00
2:53 AM,39.0,32.0,76,29.93,10.0,Calm,Calm,-,N/A,,Clear,0,2012-12-23 08:53:00
3:53 AM,36.0,32.0,86,29.92,10.0,Calm,Calm,-,N/A,,Clear,0,2012-12-23 09:53:00
4:53 AM,36.0,30.9,82,29.91,10.0,Calm,Calm,-,N/A,,Clear,0,2012-12-23 10:53:00
5:53 AM,35.1,33.1,92,29.92,10.0,Calm,Calm,-,N/A,,Clear,0,2012-12-23 11:53:00
6:53 AM,36.0,32.0,86,29.93,10.0,Calm,Calm,-,N/A,,Clear,0,2012-12-23 12:53:00
7:26 AM,33.8,30.2,87,29.90,2.5,Calm,Calm,-,N/A,,Clear,0,2012-12-23 13:26:00
7:33 AM,33.8,30.2,87,29.90,7.0,Calm,Calm,-,N/A,,Clear,0,2012-12-23 13:33:00
7:53 AM,33.1,30.9,92,29.92,7.0,Calm,Calm,-,N/A,,Clear,0,2012-12-23 13:53:00
8:53 AM,44.1,37.9,79,29.93,10.0,Calm,Calm,-,N/A,,Clear,0,2012-12-23 14:53:00
9:53 AM,51.1,42.1,71,29.93,10.0,Calm,Calm,-,N/A,,Clear,0,2012-12-23 15:53:00
10:53 AM,54.0,41.0,62,29.92,10.0,SSW,3.5,-,N/A,,Clear,210,2012-12-23 16:53:00
11:53 AM,55.9,39.9,55,29.90,10.0,Variable,4.6,-,N/A,,Clear,0,2012-12-23 17:53:00
12:53 PM,57.9,39.0,49,29.85,10.0,Calm,Calm,-,N/A,,Clear,0,2012-12-23 18:53:00
1:53 PM,61.0,39.0,44,29.83,10.0,NNE,5.8,-,N/A,,Clear,30,2012-12-23 19:53:00
2:53 PM,60.1,37.0,42,29.82,10.0,NNE,4.6,-,N/A,,Clear,30,2012-12-23 20:53:00
3:53 PM,59.0,36.0,42,29.83,10.0,Variable,6.9,-,N/A,,Clear,0,2012-12-23 21:53:00
4:53 PM,54.0,33.1,45,29.87,10.0,North,4.6,-,N/A,,Clear,360,2012-12-23 22:53:00
5:53 PM,50.0,30.9,48,29.87,10.0,North,4.6,-,N/A,,Clear,350,2012-12-23 23:53:00
6:53 PM,48.0,30.9,52,29.88,10.0,North,8.1,-,N/A,,Clear,360,2012-12-24 00:53:00
7:53 PM,43.0,28.9,58,29.93,10.0,North,9.2,-,N/A,,Clear,10,2012-12-24 01:53:00
8:53 PM,39.0,25.0,57,29.97,8.0,North,9.2,21.9,N/A,,Clear,350,2012-12-24 02:53:00
9:53 PM,36.0,24.1,62,29.96,7.0,NNE,6.9,-,N/A,,Clear,20,2012-12-24 03:53:00
10:53 PM,34.0,24.1,67,29.96,7.0,Calm,Calm,-,N/A,,Clear,0,2012-12-24 04:53:00
11:53 PM,32.0,23.0,69,29.99,6.0,NNW,3.5,-,N/A,,Haze,330,2012-12-24 05:53:00